Temp
61 60 58 59 47 46 43 45 50 53 55 62 64 63 62 64 62 55 66 70 70 70 72 73 74 75 75 75 75 74 75 75 76 76 75 76 76 76 76 76 75 75 76 76 75 75 74 74 73
58 63 58 50 43 37 42 50 50 56 60 63 63 63 60 61 63 61 64 70 71 72 72 73 73 74 75 74 74 74 75 75 76 76 76 75 76 76 76 75 75 75 75 75 75 74 74 73 73
59 61 51 45 41 40 42 48 55 60 61 61 62 65 63 63 63 63 69 70 71 72 72 72 72 74 74 74 74 74 74 75 76 76 76 76 76 76 75 74 75 75 76 76 75 74 73 73 73
55 53 50 45 40 45 48 47 54 55 58 63 61 60 63 66 66 67 70 71 71 72 72 71 73 74 74 74 74 74 75 75 75 76 75 75 76 75 75 75 75 75 75 76 75 74 73 72 72
51 47 40 41 42 46 47 54 56 54 55 57 60 57 59 67 68 70 69 71 70 72 71 71 72 74 73 74 74 74 74 75 75 75 75 75 75 75 75 74 75 74 74 75 74 73 72 72 72
44 44 38 35 42 46 50 55 53 53 56 58 60 58 60 64 65 67 70 69 72 71 70 71 69 72 72 73 73 73 74 74 74 74 74 74 74 74 74 74 74 74 73 74 74 72 72 71 71
39 37 34 34 36 40 48 55 51 54 52 55 59 56 58 60 65 67 69 71 72 72 70 70 72 70 68 70 71 72 73 74 74 74 73 72 72 73 73 73 72 73 73 74 72 72 71 71 71
42 37 31 33 35 38 50 52 54 51 50 59 60 51 52 58 64 67 70 70 70 70 71 70 71 69 69 68 66 68 70 71 72 71 69 68 68 69 69 70 71 72 72 72 71 70 70 70 70
45 31 26 32 35 39 48 46 51 54 51 53 58 52 57 63 62 66 66 66 67 68 70 70 69 68 68 67 66 65 67 68 68 67 65 65 69 69 67 65 68 71 70 71 70 70 69 68 66
38 28 33 40 40 40 45 45 47 47 48 48 52 57 59 62 60 62 64 64 64 65 67 69 68 68 66 69 65 67 68 71 70 70 68 70 67 67 64 62 64 67 67 69 69 68 66 62 61
39 32 39 41 44 43 43 43 46 44 43 47 48 52 57 60 59 59 61 64 65 66 67 68 68 69 66 67 64 65 61 66 68 69 68 67 66 64 61 60 62 62 61 63 64 62 60 60 59
34 40 41 43 45 42 41 44 43 44 46 52 52 53 54 58 58 57 60 62 64 66 67 67 68 67 66 66 65 64 63 63 66 68 68 64 63 59 58 59 60 60 61 61 60 58 58 59 59
36 39 42 43 43 42 44 41 42 44 48 52 53 54 54 57 59 58 61 63 64 66 67 66 67 67 66 65 65 63 63 63 62 67 70 65 62 58 58 59 59 59 60 59 58 57 57 57 57
39 39 39 41 41 41 39 40 39 44 48 47 50 51 54 57 57 57 58 62 63 65 66 66 66 67 67 65 65 64 64 63 62 63 65 61 61 59 58 58 58 58 60 59 57 56 56 55 55
40 33 36 38 40 38 41 35 36 43 47 47 45 48 53 57 60 58 60 62 64 65 66 65 65 65 65 65 66 64 64 63 63 63 62 62 61 59 58 58 58 59 60 58 56 56 54 53 54
33 32 25 36 38 40 38 28 39 44 42 44 46 43 49 56 58 60 61 62 64 64 64 66 67 65 65 65 65 65 64 63 63 63 63 63 62 61 59 59 58 59 59 58 56 57 54 51 51
30 23 27 31 39 37 35 29 39 44 44 42 44 43 45 53 55 60 61 61 63 63 63 65 66 65 65 65 65 65 65 63 63 63 63 63 64 62 61 60 60 60 59 59 59 57 56 50 49
26 26 28 27 35 36 33 32 39 42 43 42 42 41 43 46 53 59 61 62 62 63 63 65 66 66 65 65 65 64 63 64 64 63 63 64 66 63 62 60 59 60 59 60 59 57 54 53 51
30 27 26 30 37 34 31 32 36 41 39 40 43 40 42 45 53 57 61 62 61 62 62 63 64 66 65 64 62 62 61 63 64 65 64 64 65 63 62 60 59 59 60 60 59 55 53 49 50
28 26 26 31 37 34 30 30 36 39 39 40 42 44 41 44 48 56 58 60 59 61 62 63 64 65 66 65 65 63 62 62 64 63 64 66 65 64 62 60 60 59 56 57 56 53 50 48 49
27 25 26 26 32 33 30 26 30 37 40 43 44 47 45 44 46 50 56 58 57 60 61 62 63 64 65 66 65 62 61 60 58 59 62 63 63 61 61 60 59 58 57 56 56 54 53 47 46
21 31 30 27 25 19 31 16 27 32 34 38 41 44 45 43 47 49 54 57 57 60 61 62 62 64 64 65 63 61 60 58 61 62 62 59 61 60 60 59 59 59 58 57 56 56 56 50 45
25 32 28 28 24 24 25 20 24 34 32 36 39 42 44 43 46 47 50 57 57 57 60 61 61 62 64 63 63 61 60 61 60 58 57 59 58 58 57 57 58 57 57 57 55 54 53 52 49
33 28 28 28 25 15 25 21 21 25 31 34 38 41 44 43 45 47 51 54 57 57 57 60 59 60 62 62 62 61 60 59 58 57 57 57 54 54 54 54 55 56 55 55 55 55 54 52 50
30 22 9 8 8 11 28 23 27 34 33 34 35 40 42 43 44 45 47 49 53 56 56 57 58 58 61 60 60 60 61 58 58 57 57 55 52 51 54 53 53 53 54 53 53 52 52 52 50
27 25 16 10 8 15 29 19 27 34 34 32 34 39 43 42 45 46 47 49 52 55 56 58 58 58 60 61 61 61 61 60 58 58 58 57 57 58 56 53 54 53 51 50 50 49 49 49 48
24 21 27 18 20 17 23 30 34 30 27 28 33 38 39 41 43 45 46 48 52 54 57 58 58 58 58 60 61 60 61 60 58 58 57 57 56 55 53 51 50 48 47 47 47 45 44 44 43
28 31 17 19 7 7 20 20 15 17 19 24 36 37 39 41 43 44 45 49 52 53 55 56 57 57 58 58 55 53 52 51 51 47 43 42 42 42 41 41 41 40 41 41 41 40 40 39 39
22 18 20 20 18 13 14 15 21 18 19 28 37 37 38 39 40 42 46 46 46 46 46 46 47 46 46 46 45 44 43 43 42 41 41 40 40 40 39 39 39 38 39 39 39 39 39 37 36
27 17 19 11 14 16 18 16 22 19 20 34 38 40 40 41 41 41 41 41 41 42 42 42 43 42 42 42 41 41 41 41 40 39 40 40 39 40 39 39 39 38 38 38 38 36 36 35 33
MSLP
1013.13 1012.76 1012.59 1012.44 1013.29 1012.74 1011.20 1010.55 1009.73 1008.60 1007.60 1006.21 1005.61 1005.72 1005.64 1005.36 1005.68 1006.22 1005.24 1005.44 1005.60 1006.31 1007.08 1007.78 1008.37 1009.04 1009.41 1009.87 1010.29 1010.95 1011.27 1011.82 1012.26 1012.67 1013.01 1013.10 1013.54 1013.71 1014.05 1014.42 1014.87 1015.09 1015.31 1015.49 1015.74 1015.92 1016.07 1016.22 1016.37
1013.17 1012.72 1012.95 1013.17 1013.19 1012.26 1010.21 1009.89 1009.38 1008.16 1006.96 1006.09 1005.70 1005.34 1005.45 1005.11 1005.10 1005.49 1005.70 1005.52 1005.60 1006.13 1006.90 1007.68 1008.32 1008.90 1009.42 1009.89 1010.30 1010.87 1011.26 1011.66 1012.17 1012.60 1013.01 1013.36 1013.66 1014.02 1014.24 1014.42 1014.89 1015.17 1015.43 1015.66 1015.89 1016.17 1016.30 1016.37 1016.52
1013.12 1013.24 1013.47 1013.35 1012.35 1009.95 1009.50 1008.99 1008.44 1007.59 1007.30 1006.74 1006.13 1005.29 1005.09 1004.89 1004.98 1005.02 1004.61 1005.07 1005.58 1006.26 1006.95 1007.41 1008.13 1008.76 1009.42 1009.99 1010.42 1010.79 1011.35 1011.66 1012.06 1012.41 1012.94 1013.30 1013.71 1014.16 1014.50 1014.64 1014.87 1015.19 1015.43 1015.64 1016.00 1016.29 1016.45 1016.59 1016.64
1013.68 1013.93 1013.88 1013.11 1010.40 1009.30 1009.09 1008.75 1008.28 1007.87 1007.19 1006.86 1006.34 1005.72 1005.07 1004.61 1004.63 1004.60 1004.72 1005.04 1005.67 1006.22 1006.85 1007.46 1008.02 1008.59 1009.26 1009.99 1010.40 1010.77 1011.34 1011.57 1012.10 1012.50 1012.91 1013.18 1013.82 1013.98 1014.65 1014.77 1015.00 1015.18 1015.49 1015.73 1016.07 1016.32 1016.48 1016.64 1016.73
1014.38 1014.62 1014.36 1012.54 1009.93 1009.91 1009.43 1008.88 1008.71 1008.38 1008.03 1007.11 1006.93 1006.07 1005.41 1004.64 1004.29 1004.57 1005.07 1005.17 1005.36 1006.15 1006.95 1007.47 1008.00 1008.42 1009.09 1009.75 1010.38 1010.75 1011.30 1011.60 1012.16 1012.63 1012.90 1013.28 1013.70 1014.20 1014.65 1014.94 1015.10 1015.39 1015.73 1015.88 1016.19 1016.41 1016.59 1016.71 1016.80
1015.09 1015.26 1014.73 1012.57 1010.80 1010.77 1010.13 1009.50 1009.01 1008.61 1008.10 1007.64 1007.18 1006.50 1005.48 1005.13 1004.76 1005.20 1005.48 1006.00 1005.94 1006.16 1006.76 1007.59 1008.14 1008.69 1009.20 1009.73 1010.41 1010.86 1011.27 1011.64 1012.16 1012.66 1012.94 1013.31 1013.79 1014.26 1014.57 1015.01 1015.26 1015.51 1015.85 1016.08 1016.34 1016.58 1016.72 1016.85 1016.92
1015.55 1015.90 1014.46 1013.26 1012.07 1011.68 1010.69 1009.89 1009.53 1008.99 1008.35 1007.98 1007.43 1006.75 1005.88 1005.51 1005.29 1005.28 1005.99 1006.43 1006.73 1006.85 1007.18 1007.54 1008.11 1008.76 1009.44 1009.90 1010.52 1011.00 1011.32 1011.54 1012.06 1012.67 1013.17 1013.51 1013.91 1014.29 1014.78 1014.97 1015.42 1015.69 1015.87 1016.12 1016.45 1016.79 1016.90 1016.97 1017.06
1015.74 1015.97 1014.92 1013.99 1013.20 1011.95 1011.22 1010.40 1009.96 1009.64 1008.99 1008.32 1007.70 1007.46 1007.09 1007.07 1006.49 1005.80 1005.83 1006.77 1007.08 1007.31 1007.55 1007.74 1007.98 1008.73 1009.38 1010.08 1010.67 1011.16 1011.54 1011.66 1012.05 1012.58 1013.20 1013.80 1014.16 1014.47 1014.94 1015.22 1015.42 1015.66 1016.00 1016.24 1016.49 1016.81 1017.03 1017.02 1017.20
1015.42 1016.21 1015.50 1014.65 1013.90 1012.90 1012.00 1011.80 1010.80 1010.19 1009.91 1009.29 1008.52 1008.39 1008.01 1006.93 1006.37 1006.38 1005.91 1006.75 1007.22 1007.40 1007.69 1007.98 1008.27 1008.63 1009.20 1009.95 1010.59 1011.10 1011.64 1011.94 1012.33 1012.77 1013.34 1013.90 1014.40 1014.68 1015.05 1015.54 1015.67 1015.69 1015.95 1016.27 1016.55 1016.90 1017.13 1017.22 1017.35
1015.89 1016.23 1015.45 1014.73 1014.31 1013.65 1012.89 1012.27 1011.47 1010.94 1010.35 1009.71 1009.10 1008.38 1007.96 1007.18 1007.24 1006.94 1006.10 1006.00 1006.80 1007.10 1007.40 1007.68 1008.16 1008.63 1009.18 1009.81 1010.62 1010.98 1011.51 1011.89 1012.45 1012.88 1013.62 1013.88 1014.49 1014.73 1015.23 1015.61 1015.92 1016.03 1016.13 1016.25 1016.59 1017.00 1017.16 1017.43 1017.70
1015.71 1015.55 1014.96 1014.38 1013.99 1013.72 1013.44 1012.80 1012.22 1011.49 1010.69 1010.12 1009.55 1008.83 1008.31 1007.82 1007.62 1007.54 1007.08 1005.86 1006.01 1006.61 1007.12 1007.43 1008.05 1008.34 1008.91 1009.65 1010.48 1011.13 1011.56 1011.84 1012.45 1012.92 1013.57 1014.04 1014.42 1014.89 1015.42 1015.75 1016.02 1016.23 1016.44 1016.67 1016.85 1017.25 1017.38 1017.63 1017.93
1015.86 1015.29 1015.10 1014.30 1013.93 1013.87 1013.47 1012.96 1012.29 1011.77 1010.74 1010.12 1009.56 1009.00 1008.49 1008.02 1007.83 1007.67 1007.17 1006.67 1006.25 1006.50 1006.60 1007.09 1007.89 1008.52 1008.94 1009.28 1010.32 1010.95 1011.46 1011.93 1012.31 1012.82 1013.44 1014.08 1014.53 1015.01 1015.48 1015.81 1015.97 1016.21 1016.51 1016.76 1017.13 1017.51 1017.65 1017.83 1018.05
1015.91 1015.21 1014.70 1014.18 1013.96 1013.72 1013.36 1012.87 1012.17 1011.02 1010.43 1009.83 1009.35 1008.96 1008.36 1007.92 1007.53 1007.21 1007.15 1006.53 1006.27 1005.82 1006.07 1006.70 1007.08 1008.35 1009.01 1009.57 1010.22 1010.94 1011.50 1011.86 1012.22 1012.78 1013.32 1013.88 1014.56 1015.10 1015.43 1015.78 1015.92 1016.24 1016.48 1016.78 1017.08 1017.50 1017.78 1017.93 1018.16
1015.58 1015.24 1014.47 1014.05 1013.68 1013.61 1013.22 1012.24 1012.16 1010.88 1010.17 1009.64 1009.27 1008.83 1008.13 1007.57 1007.22 1007.21 1006.86 1006.61 1005.67 1003.06 1005.60 1006.18 1006.81 1007.57 1008.65 1009.75 1010.21 1010.91 1011.37 1011.78 1012.31 1012.67 1013.28 1013.91 1014.38 1014.85 1015.29 1015.70 1016.01 1016.19 1016.34 1016.72 1017.07 1017.37 1017.76 1018.04 1018.28
1015.65 1015.16 1014.51 1013.65 1013.08 1012.75 1012.42 1011.95 1011.04 1010.52 1009.84 1009.24 1008.88 1008.55 1007.83 1007.18 1006.49 1006.30 1006.81 1005.52 1004.51 1005.30 1005.31 1005.52 1006.42 1007.22 1008.10 1009.35 1010.15 1010.74 1011.20 1011.73 1012.12 1012.54 1013.15 1013.75 1014.17 1014.62 1015.14 1015.51 1015.97 1016.08 1016.29 1016.64 1017.16 1017.56 1017.91 1018.22 1018.44
1015.70 1015.38 1014.00 1012.87 1012.65 1012.19 1012.09 1011.22 1010.56 1009.99 1009.75 1009.17 1008.72 1008.36 1007.72 1006.85 1005.96 1005.15 1005.21 1005.24 1004.98 1004.46 1005.32 1004.45 1005.57 1006.82 1007.42 1008.54 1009.53 1010.38 1010.93 1011.50 1011.93 1012.39 1012.87 1013.43 1013.84 1014.35 1014.87 1015.34 1015.64 1015.83 1016.29 1016.71 1017.22 1017.62 1018.06 1018.39 1018.62
1015.45 1014.46 1013.64 1012.65 1012.14 1011.89 1011.53 1010.72 1009.96 1009.45 1009.27 1008.82 1008.20 1007.97 1007.40 1006.65 1005.74 1005.11 1004.31 1004.46 1004.80 1004.65 1004.03 1004.54 1005.49 1006.39 1006.67 1007.72 1008.96 1009.74 1010.58 1011.23 1011.67 1012.18 1012.50 1013.08 1013.38 1014.02 1014.44 1014.73 1015.07 1015.41 1015.99 1016.47 1016.93 1017.62 1017.78 1018.63 1018.99
1014.63 1014.14 1013.33 1012.34 1011.93 1011.65 1011.18 1010.67 1009.75 1009.26 1009.00 1008.39 1007.82 1007.67 1007.18 1006.46 1005.56 1004.80 1004.00 1003.95 1004.47 1004.81 1003.91 1004.66 1005.30 1005.92 1006.62 1007.59 1008.74 1009.77 1010.29 1010.73 1011.11 1011.67 1012.03 1012.56 1012.92 1013.48 1014.00 1014.34 1014.82 1015.07 1015.70 1016.25 1016.60 1017.32 1017.87 1018.39 1019.07
1014.52 1013.93 1012.77 1011.94 1011.67 1011.38 1010.80 1009.43 1008.99 1008.51 1008.40 1007.92 1007.17 1007.16 1006.76 1006.10 1005.15 1004.47 1003.72 1003.52 1003.98 1004.77 1004.60 1004.54 1003.97 1005.49 1006.39 1006.82 1007.82 1009.23 1009.73 1010.28 1010.77 1011.14 1011.43 1011.93 1012.40 1013.00 1013.55 1014.16 1014.68 1014.95 1015.35 1015.63 1016.32 1017.33 1017.85 1018.58 1019.08
1014.22 1013.59 1012.13 1011.24 1011.00 1010.69 1009.80 1008.24 1008.09 1007.69 1007.24 1006.96 1006.52 1006.12 1006.19 1005.82 1005.02 1004.33 1003.61 1003.13 1003.68 1004.36 1004.51 1004.75 1004.91 1005.09 1005.72 1006.54 1007.22 1008.22 1009.16 1009.78 1010.27 1010.70 1010.98 1011.26 1011.86 1012.36 1012.95 1013.59 1014.20 1014.75 1015.15 1015.36 1016.14 1016.70 1017.61 1018.47 1018.65
1013.43 1013.06 1012.02 1011.43 1010.68 1009.97 1009.45 1007.49 1007.21 1005.79 1006.04 1005.70 1005.27 1004.89 1005.28 1005.34 1004.98 1004.33 1004.01 1003.78 1004.13 1003.95 1004.07 1004.60 1004.32 1004.61 1005.05 1005.96 1007.03 1008.03 1009.02 1009.70 1010.35 1010.79 1010.90 1011.10 1011.32 1012.01 1012.44 1013.05 1013.62 1014.31 1014.64 1014.98 1015.29 1016.09 1016.64 1017.67 1018.33
1012.96 1012.12 1011.87 1011.52 1011.02 1009.76 1008.88 1006.63 1005.88 1005.28 1004.83 1004.65 1004.25 1004.08 1004.29 1004.67 1004.59 1004.46 1004.35 1004.03 1003.67 1003.82 1003.83 1004.40 1004.74 1004.81 1005.10 1005.75 1006.52 1007.21 1007.83 1008.78 1009.20 1009.72 1010.16 1010.77 1011.04 1011.52 1011.94 1012.44 1012.97 1013.66 1014.18 1014.56 1014.85 1015.15 1015.71 1016.47 1017.59
1012.70 1012.19 1011.84 1011.40 1010.79 1010.16 1008.76 1008.35 1005.00 1004.56 1004.23 1003.70 1003.35 1003.13 1003.49 1003.94 1004.08 1004.05 1004.06 1003.49 1003.10 1003.44 1004.12 1004.30 1004.69 1004.87 1004.75 1005.48 1006.37 1007.07 1007.67 1008.15 1008.86 1009.37 1010.02 1010.38 1010.78 1011.08 1011.53 1011.95 1012.52 1013.05 1013.60 1013.81 1014.25 1014.85 1015.38 1015.65 1016.34
1012.91 1012.18 1010.94 1010.51 1010.39 1009.66 1007.55 1007.94 1005.08 1004.86 1004.59 1004.03 1003.54 1003.23 1003.09 1003.37 1003.65 1003.49 1003.46 1003.32 1003.32 1003.80 1004.16 1004.21 1004.84 1005.01 1005.50 1005.55 1006.48 1006.86 1007.55 1008.20 1008.98 1009.60 1009.97 1010.52 1010.65 1011.07 1011.58 1011.97 1012.32 1012.56 1013.09 1013.30 1013.54 1013.83 1014.40 1014.88 1015.30
1012.95 1012.43 1011.85 1011.07 1010.35 1008.97 1007.43 1007.50 1005.36 1005.61 1006.11 1005.96 1004.92 1003.72 1003.01 1003.15 1003.41 1003.41 1003.54 1003.77 1003.79 1003.43 1003.83 1004.59 1005.11 1005.84 1006.18 1006.15 1005.67 1006.53 1007.48 1007.88 1008.41 1009.18 1009.52 1010.13 1010.55 1010.95 1011.11 1011.60 1012.02 1012.41 1012.48 1012.78 1013.37 1013.47 1013.94 1014.38 1014.91
1013.47 1012.99 1013.42 1011.92 1010.57 1009.01 1007.81 1007.04 1006.58 1006.86 1006.60 1005.44 1004.15 1003.69 1002.86 1002.84 1003.01 1003.13 1003.27 1003.62 1003.44 1003.32 1003.71 1004.40 1005.09 1005.21 1005.55 1005.95 1006.28 1006.78 1007.04 1007.59 1008.09 1008.45 1009.26 1009.81 1010.03 1010.21 1010.72 1011.00 1011.26 1011.61 1012.05 1012.56 1012.80 1013.52 1014.13 1014.75 1015.44
1013.96 1013.69 1013.42 1012.25 1010.19 1009.60 1007.90 1007.25 1006.88 1008.12 1006.70 1005.91 1003.19 1003.02 1002.71 1002.75 1003.14 1003.21 1003.39 1003.76 1003.65 1003.81 1003.99 1004.22 1004.56 1004.80 1005.22 1005.85 1006.22 1006.64 1006.93 1007.59 1008.10 1008.79 1009.33 1009.75 1010.07 1010.70 1010.99 1011.65 1011.98 1012.13 1012.70 1013.31 1013.50 1013.71 1014.77 1015.07 1015.90
1015.50 1015.10 1013.79 1012.51 1012.09 1010.46 1008.97 1009.60 1011.58 1010.37 1008.85 1005.66 1002.86 1002.69 1002.83 1002.86 1003.35 1003.53 1003.92 1004.23 1004.60 1004.76 1004.61 1004.91 1005.52 1006.04 1005.69 1007.07 1007.06 1007.75 1008.45 1008.96 1009.50 1010.22 1011.22 1011.35 1011.72 1011.79 1012.38 1012.80 1013.20 1013.81 1014.33 1014.28 1014.26 1015.50 1015.26 1016.09 1017.25
1016.41 1016.37 1015.56 1014.78 1013.72 1012.49 1011.51 1012.53 1013.97 1013.57 1011.32 1007.38 1004.76 1003.89 1003.85 1003.77 1004.31 1004.89 1005.31 1005.78 1006.13 1006.08 1005.45 1006.56 1007.65 1007.79 1008.63 1009.02 1009.29 1009.56 1010.50 1010.87 1011.29 1011.90 1012.55 1012.71 1013.11 1013.66 1013.73 1013.99 1014.40 1014.54 1015.12 1016.10 1015.79 1015.94 1016.66 1016.90 1018.22
1018.44 1018.29 1017.26 1016.50 1014.67 1014.41 1013.65 1014.55 1015.35 1015.14 1013.02 1008.89 1006.90 1006.19 1005.63 1005.49 1006.13 1006.73 1007.26 1007.54 1007.65 1007.66 1008.00 1008.97 1009.61 1009.72 1010.67 1010.07 1010.66 1011.38 1012.25 1012.71 1012.93 1013.62 1014.14 1014.31 1014.35 1014.92 1015.18 1015.24 1015.69 1016.19 1016.35 1015.94 1017.16 1016.88 1017.78 1017.46 1018.35
Wind_Speed
9 9 1 4 2 3 10 7 3 4 3 5 2 3 6 8 7 7 2 8 14 17 16 17 22 23 23 22 23 20 19 20 21 21 20 21 20 19 20 18 16 15 15 15 14 14 13 13 12
6 4 4 2 4 8 10 10 10 15 7 8 3 3 3 6 1 4 10 9 17 18 16 16 20 22 21 22 22 21 20 21 22 22 21 20 19 19 19 18 16 15 15 14 13 12 12 13 12
5 1 3 4 6 21 11 7 17 17 7 5 6 5 4 4 1 11 5 17 19 18 16 16 20 22 22 22 22 22 20 20 20 19 20 21 20 18 17 18 17 16 15 14 13 12 12 12 11
4 4 3 8 23 10 13 2 6 7 4 7 4 8 4 0 2 7 12 18 18 18 16 17 23 24 24 22 22 21 21 21 19 19 19 21 20 18 16 17 16 15 14 14 13 13 12 11 9
3 1 4 10 26 7 3 7 8 9 6 4 5 7 4 5 3 8 15 17 21 19 14 16 20 22 24 24 22 21 21 21 19 19 19 19 19 18 17 17 17 14 13 13 12 12 11 10 8
2 2 6 14 21 4 7 10 4 4 7 8 7 7 5 5 4 7 12 13 17 19 16 16 16 19 20 22 22 21 21 20 20 19 18 19 18 17 18 17 16 15 13 13 12 11 10 9 9
4 2 7 8 6 4 4 5 6 14 6 6 7 5 3 1 4 9 9 10 15 16 15 14 15 15 16 19 20 20 21 20 18 18 17 18 17 16 18 16 14 15 15 13 11 10 10 9 10
3 2 4 4 4 7 8 9 8 4 5 9 3 1 5 10 9 7 12 10 11 12 14 15 14 13 13 12 12 13 14 16 18 19 16 14 13 13 12 14 13 14 13 13 11 9 9 9 9
4 1 3 5 3 6 8 9 5 6 5 5 5 1 5 14 2 9 12 10 10 12 14 14 14 13 13 11 10 12 12 12 13 13 13 12 7 9 9 7 9 12 11 11 12 9 8 8 9
3 2 5 5 4 7 9 8 10 5 9 5 11 5 8 8 8 9 15 14 15 15 15 15 15 15 12 10 9 10 9 10 8 9 10 8 6 7 6 6 6 8 9 9 10 9 9 6 4
3 7 5 6 8 3 5 9 4 6 8 3 6 10 9 4 6 10 10 15 21 17 12 15 15 16 15 11 7 5 3 6 6 10 9 7 5 5 4 3 3 3 5 2 4 5 3 5 4
5 6 6 7 5 4 6 4 9 9 11 8 11 8 5 6 6 8 12 10 15 15 16 15 15 14 13 9 8 7 7 6 5 9 10 7 4 5 4 3 4 4 3 4 4 3 4 4 4
10 12 9 7 12 9 10 13 12 16 12 13 9 9 12 10 9 7 13 11 11 18 16 16 16 15 12 11 9 7 8 7 6 8 14 7 6 5 4 4 4 3 3 3 4 4 4 4 5
4 7 14 11 17 10 14 19 5 10 10 10 9 10 13 14 10 6 13 12 10 10 16 17 17 16 14 10 11 8 7 7 7 7 8 8 7 6 5 4 4 4 4 4 4 4 5 4 4
7 13 15 17 13 9 7 10 13 9 12 17 10 10 13 15 11 10 13 10 9 11 15 17 17 17 15 15 12 9 8 7 8 8 9 9 8 7 6 5 4 4 4 5 4 3 3 4 3
9 7 9 3 3 6 7 13 9 10 9 15 13 9 11 15 15 14 9 8 8 11 12 18 12 18 19 17 13 9 8 8 7 7 8 10 9 8 7 6 5 5 4 4 4 4 3 3 4
7 12 14 15 7 7 9 7 7 8 12 14 12 8 9 12 11 12 9 7 8 9 10 17 17 17 17 14 11 12 12 9 8 7 8 10 10 9 8 7 7 8 6 6 6 3 5 3 3
12 12 12 15 4 7 16 17 17 12 14 14 13 7 8 8 11 10 9 7 8 10 11 15 14 17 17 11 9 8 9 9 9 8 8 10 10 10 9 5 6 7 6 6 6 6 2 3 4
18 19 20 19 16 18 18 21 19 16 9 14 17 8 9 9 9 8 9 6 6 8 8 13 19 17 13 12 11 9 9 9 8 9 11 11 11 10 9 6 6 6 9 10 9 4 4 2 4
16 21 23 20 16 13 15 21 16 14 12 12 16 16 9 6 7 8 7 4 7 9 9 11 14 16 15 10 10 7 9 8 7 7 9 11 11 11 9 9 7 8 5 7 8 6 4 2 5
17 17 20 20 18 16 15 21 18 17 18 18 19 19 8 10 9 7 6 6 7 8 9 6 11 15 15 14 10 6 6 3 3 4 7 7 10 9 10 9 8 8 7 8 11 9 9 5 6
13 5 6 12 9 6 4 11 8 6 13 12 18 17 12 10 8 7 7 7 7 8 7 12 8 15 9 14 12 15 12 9 7 8 7 7 8 9 9 9 10 10 7 7 9 10 10 7 6
10 9 12 15 15 10 13 7 5 8 14 17 17 17 12 10 10 9 9 7 5 5 9 7 7 7 13 11 11 10 9 7 4 4 7 7 7 7 8 9 10 10 8 9 10 8 7 6 5
18 17 16 12 7 6 11 10 5 2 3 6 6 9 11 11 10 8 8 6 6 7 5 7 7 5 9 11 12 13 11 8 6 5 6 5 3 4 4 5 7 8 8 9 11 11 12 10 5
7 5 5 5 2 6 3 9 11 13 14 12 15 14 9 9 9 9 8 7 7 7 9 8 8 7 9 10 11 10 10 9 8 6 5 7 4 4 9 9 8 7 8 6 5 7 8 9 8
12 3 3 8 3 3 5 5 1 19 25 25 22 17 9 8 7 8 8 7 6 7 9 9 9 6 4 9 12 11 11 7 7 10 9 7 7 8 7 10 10 10 7 5 5 3 2 0 2
11 10 13 8 15 6 4 2 5 30 27 22 21 11 8 9 8 9 6 6 6 6 12 12 8 6 7 9 5 6 8 9 8 8 4 3 2 3 4 5 4 6 6 4 4 5 5 8 5
11 12 7 3 5 6 3 7 11 32 34 36 5 6 7 8 7 6 5 6 3 5 8 10 5 8 8 4 8 11 13 13 12 12 12 12 11 12 12 12 12 12 12 10 10 8 10 12 8
9 11 5 5 3 4 6 6 15 26 28 25 13 8 6 7 10 10 13 13 13 14 19 17 15 17 15 12 15 17 15 15 15 13 11 12 12 12 13 13 13 13 12 12 11 13 11 14 11
9 14 6 1 5 4 4 5 24 26 26 20 15 16 19 21 19 18 17 17 18 18 20 17 15 19 15 15 18 18 17 16 17 15 14 13 14 13 13 14 13 12 11 11 9 11 8 11 10
Wind_Direction
330 307 282 38 60 245 232 245 286 251 222 217 171 201 216 200 175 213 132 174 140 152 160 164 168 166 161 155 149 155 150 148 147 143 141 140 140 136 141 137 136 135 134 133 132 132 128 123 121
321 306 27 97 195 239 237 213 235 238 252 334 330 231 271 251 208 110 140 173 152 151 157 162 167 166 161 153 153 156 155 150 149 149 143 140 142 145 144 141 139 140 139 137 136 137 133 127 124
312 259 113 174 214 232 243 197 231 255 278 288 307 212 212 239 296 172 217 158 151 155 161 159 162 161 158 153 156 158 158 152 153 151 148 146 145 151 146 143 144 148 144 140 141 144 135 129 125
11 355 353 241 238 250 225 199 225 258 257 233 249 282 295 162 238 188 147 153 154 157 162 160 158 159 153 155 158 159 159 155 159 155 154 152 154 150 152 150 148 149 148 147 147 145 138 133 127
29 41 242 240 249 259 253 255 266 272 294 300 358 284 267 319 39 138 155 160 161 160 163 163 163 158 156 158 162 162 159 155 157 161 158 156 152 159 156 156 154 148 156 153 153 148 143 136 125
10 87 243 242 252 309 250 276 271 252 271 288 266 263 237 326 96 140 154 167 166 162 157 164 162 164 160 157 165 166 161 160 162 159 163 158 155 158 159 159 158 156 155 159 158 156 148 139 124
130 149 248 287 301 314 280 254 246 278 275 271 308 250 264 118 197 144 152 161 172 164 159 162 166 161 158 161 168 171 167 166 170 161 157 154 159 160 165 159 160 162 164 165 163 162 150 146 134
115 131 283 265 287 293 258 313 330 344 294 314 348 301 329 330 293 154 144 161 167 166 166 163 161 158 158 163 167 173 171 163 158 157 154 151 157 158 158 165 165 167 173 167 164 162 154 153 150
122 270 266 274 269 285 338 342 305 310 254 342 314 37 275 337 181 161 148 156 166 173 172 167 162 160 160 164 169 160 167 174 151 145 145 147 164 155 161 154 177 174 172 176 162 158 147 145 136
139 190 245 213 314 305 300 294 304 303 303 292 284 313 341 5 343 213 177 170 182 178 178 174 171 163 157 163 164 164 173 167 161 155 157 161 149 147 145 159 190 169 170 152 151 149 144 118 116
201 210 211 273 283 304 292 305 287 288 287 265 297 306 327 350 357 326 280 190 189 183 174 179 176 166 162 163 160 164 151 167 164 154 167 153 146 138 143 156 170 148 164 168 139 126 135 144 138
289 252 250 269 258 307 290 265 280 254 260 270 291 286 276 313 286 304 304 265 185 181 180 173 171 171 168 155 165 164 159 160 166 168 171 171 151 148 156 167 169 163 166 163 153 143 144 147 154
253 272 271 256 289 277 272 260 254 267 272 268 270 287 292 286 278 241 284 263 230 187 179 175 166 169 166 164 165 165 168 168 155 174 185 166 162 162 162 179 166 174 154 169 169 158 158 163 153
264 283 285 292 287 283 269 267 245 265 277 273 259 266 276 279 256 213 280 259 233 185 183 171 169 167 160 169 169 171 169 166 161 167 170 164 167 168 174 167 182 174 171 168 172 173 152 153 149
274 290 292 280 277 250 235 264 238 238 262 268 241 241 257 267 271 251 208 252 240 219 192 179 169 164 169 168 172 175 175 168 172 173 164 174 172 171 171 173 180 190 179 153 138 120 112 120 121
284 270 280 59 331 252 167 264 278 255 253 273 272 248 253 265 269 272 238 221 235 229 224 163 177 170 170 171 170 174 176 173 178 178 177 184 179 177 174 179 185 170 160 153 152 158 129 130 150
196 266 262 289 232 240 193 255 248 281 283 275 271 251 252 263 263 255 252 209 192 223 195 182 176 174 168 168 172 173 176 179 180 181 182 190 186 185 185 188 186 172 167 173 164 164 141 150 131
276 261 262 263 250 274 287 272 271 268 268 269 273 244 260 269 269 256 231 209 182 195 219 179 181 176 174 167 169 182 181 182 181 186 186 183 192 189 194 188 178 168 170 178 160 159 79 132 143
281 276 268 269 279 277 269 269 270 269 249 261 267 236 234 250 269 296 229 197 176 206 197 187 185 178 174 175 162 181 181 184 188 188 189 187 187 188 191 182 174 176 183 176 161 139 140 119 138
272 275 270 277 267 257 260 260 263 255 245 236 257 267 221 237 271 282 305 221 172 197 206 197 191 179 180 181 173 176 178 191 184 182 186 186 184 182 178 182 181 185 168 149 163 154 131 122 178
274 267 277 276 294 271 273 273 261 248 245 242 246 249 217 216 243 252 262 248 209 198 183 220 199 186 178 172 163 135 130 116 142 200 200 195 174 175 179 181 178 186 180 186 174 171 172 160 202
286 255 285 293 288 279 150 288 244 240 232 227 237 239 225 198 219 228 233 240 197 209 186 195 211 185 183 170 168 165 172 170 184 196 190 172 180 187 188 186 186 191 191 190 194 183 188 143 175
263 301 282 276 275 283 232 266 264 227 245 240 225 231 225 194 199 222 225 223 202 179 202 186 176 197 186 178 170 170 174 177 174 175 163 185 183 190 189 186 183 186 195 194 183 175 189 190 165
278 292 278 259 244 247 238 190 306 197 282 308 247 238 219 189 204 215 212 219 211 193 177 169 160 150 265 184 175 186 184 166 162 172 179 188 178 167 192 196 204 197 201 194 196 190 194 202 195
325 293 319 340 352 229 351 181 261 332 356 335 319 293 229 192 194 200 209 205 213 182 169 164 158 175 219 198 180 173 182 167 165 164 204 175 186 192 204 193 198 208 210 196 200 190 199 203 206
305 340 351 298 266 272 104 244 229 10 343 326 311 284 252 178 190 198 197 203 207 185 184 173 165 188 134 193 190 180 179 186 180 198 203 209 212 224 211 201 208 203 184 179 178 191 188 309 304
331 323 294 245 255 247 210 351 188 347 326 320 278 243 191 174 183 201 199 193 203 168 178 175 173 177 171 254 199 189 174 177 182 188 213 225 257 333 354 347 328 40 46 38 81 97 76 76 66
340 345 328 338 337 317 327 71 353 344 330 326 34 158 152 157 172 187 144 176 77 85 86 65 30 29 53 33 31 53 44 41 48 56 56 57 49 47 53 56 55 45 37 56 70 47 68 73 51
0 355 313 291 253 296 338 94 7 339 329 323 30 39 85 79 60 70 73 66 66 63 62 57 57 60 54 61 64 54 50 56 57 57 57 67 70 69 70 72 71 75 73 52 69 75 60 73 61
38 357 317 266 340 319 274 74 5 345 337 358 47 71 72 72 73 65 61 61 58 59 63 61 60 66 61 58 66 63 55 53 58 59 55 52 65 63 70 74 80 73 65 89 74 81 75 78 74